"Pseudo-MPEC" for P21oaUB

Created 2021 Nov 27 5:07:14 UT using Find_Orb

Click here for an explanation of pseudo-MPECs

 
 Astrometry: 
     P21oaUB  C2021 11 06B=!RuJF9rmfPsEYDnjAstrometryoT^019redacted;vB@v1bng;F52
     P21oaUB  C2021 11 06Ck;\clickq4)]EVcYTWIIe-3hereP!csA:^].KxQ:forg3NqJFpZF52
     P21oaUB  C2021 11 06/O4@x7``J6;hc6(Hs6MLAjf.#nYexplanation(nPb#YwwXh]rmNF52
     P21oaUB  C2021 11 063[k#cmvSAHteh\B6pJ*F3a%d97RvcE$PJSCqPvlRJWu-T1#$p#kWF52

Station data:
(F52) Pan-STARRS 2, Haleakala  (N20.707384 W156.255910)  US/Hawaii. 1.8-m
   Ritchey-Chrétien + CCD.

Orbital elements:  P21oaUB
   Perihelion 2021 Oct 18.091027 +/- 40.7204 TT =  2:11:04 (JD 2459505.591027)
Epoch 2021 Nov  6.0 TT = JDT 2459524.5   Earth MOID: 0.2697   Ma: 0.0555
M   5.38937978 +/- 21.335255        (J2000 ecliptic)          AutoNEOCP
n   0.28501705 +/- 0.272051         Peri.  115.50072 +/- 97.969011
a   2.28676825 +/- 1.45742          Node   276.32277 +/- 38.926905
e   0.4516829 +/- 0.246957          Incl.    4.18107 +/- 4.9443733
P   3.46                   H 23.7   G  0.15   U 11.9  SR
q 1.25387394 +/- 0.369915    Q 3.31966256 +/- 61.4146
3 of 4 observations 2021 Nov. 6 (49.3 min); mean residual 0".04
Residuals in arcseconds: 
211106 F52  .05+  .02+    211106 F52  .07-  .02-    
211106 F52( .05+  .02+)   211106 F52  .02+  .01+    

Ephemerides (geocentric):
Date (UTC) HH   RA              Dec         delta   r     elong  mag " sig PA
---- -- -- --  -------------   -----------  ------ ------ -----  --- ---- ---
2021 11 27 05  04 01 07.660   +29 29 18.04  .33536 1.3193 171.3 22.4  69d  23
2021 11 27 06  04 01 08.546   +29 28 41.92  .33550 1.3194 171.3 22.4  69d  23
2021 11 27 07  04 01 09.431   +29 28 05.81  .33563 1.3195 171.3 22.4  69d  23
2021 11 27 08  04 01 10.316   +29 27 29.70  .33577 1.3196 171.3 22.4  69d  23
2021 11 27 09  04 01 11.201   +29 26 53.59  .33590 1.3198 171.3 22.4  69d  23
2021 11 27 10  04 01 12.085   +29 26 17.48  .33603 1.3199 171.3 22.4  69d  23
2021 11 27 11  04 01 12.969   +29 25 41.37  .33617 1.3200 171.3 22.4  69d  23
2021 11 27 12  04 01 13.853   +29 25 05.26  .33630 1.3202 171.3 22.4  69d  23
2021 11 27 13  04 01 14.737   +29 24 29.16  .33644 1.3203 171.3 22.4  69d  23
2021 11 27 14  04 01 15.620   +29 23 53.05  .33657 1.3204 171.3 22.4  69d  23
2021 11 27 15  04 01 16.503   +29 23 16.95  .33671 1.3206 171.3 22.4  69d  23
2021 11 27 16  04 01 17.385   +29 22 40.85  .33685 1.3207 171.3 22.4  69d  23
2021 11 27 17  04 01 18.267   +29 22 04.74  .33698 1.3208 171.4 22.4  69d  23
2021 11 27 18  04 01 19.149   +29 21 28.65  .33712 1.3210 171.4 22.4  69d  23
2021 11 27 19  04 01 20.031   +29 20 52.55  .33725 1.3211 171.4 22.4  69d  23
2021 11 27 20  04 01 20.912   +29 20 16.45  .33739 1.3212 171.4 22.4  69d  23
2021 11 27 21  04 01 21.793   +29 19 40.36  .33753 1.3213 171.4 22.4  69d  23
2021 11 27 22  04 01 22.674   +29 19 04.27  .33767 1.3215 171.4 22.4  69d  23
2021 11 27 23  04 01 23.555   +29 18 28.18  .33780 1.3216 171.4 22.4  69d  22
2021 11 28 00  04 01 24.435   +29 17 52.09  .33794 1.3217 171.4 22.4  69d  22
2021 11 28 01  04 01 25.315   +29 17 16.00  .33808 1.3219 171.4 22.4  69d  22
2021 11 28 02  04 01 26.195   +29 16 39.92  .33822 1.3220 171.4 22.4  69d  22
2021 11 28 03  04 01 27.075   +29 16 03.84  .33836 1.3221 171.4 22.4  69d  22
2021 11 28 04  04 01 27.955   +29 15 27.76  .33849 1.3223 171.4 22.4  69d  22
2021 11 28 05  04 01 28.834   +29 14 51.69  .33863 1.3224 171.4 22.4  69d  22
2021 11 28 06  04 01 29.713   +29 14 15.62  .33877 1.3225 171.4 22.4  69d  22
2021 11 28 07  04 01 30.592   +29 13 39.55  .33891 1.3227 171.4 22.4  69d  22
2021 11 28 08  04 01 31.471   +29 13 03.48  .33905 1.3228 171.4 22.4  69d  22
2021 11 28 09  04 01 32.350   +29 12 27.42  .33919 1.3229 171.4 22.4  69d  22
2021 11 28 10  04 01 33.228   +29 11 51.36  .33933 1.3231 171.4 22.4  69d  22
2021 11 28 11  04 01 34.107   +29 11 15.31  .33947 1.3232 171.4 22.4  69d  22
2021 11 28 12  04 01 34.985   +29 10 39.25  .33961 1.3233 171.4 22.4  69d  22
2021 11 28 13  04 01 35.863   +29 10 03.20  .33975 1.3235 171.4 22.4  69d  22
2021 11 28 14  04 01 36.741   +29 09 27.16  .33989 1.3236 171.4 22.4  69d  22
2021 11 28 15  04 01 37.619   +29 08 51.12  .34004 1.3237 171.4 22.4  69d  22
2021 11 28 16  04 01 38.497   +29 08 15.08  .34018 1.3239 171.4 22.4  69d  22
2021 11 28 17  04 01 39.375   +29 07 39.05  .34032 1.3240 171.4 22.4  69d  22
2021 11 28 18  04 01 40.253   +29 07 03.02  .34046 1.3241 171.4 22.4  69d  22
2021 11 28 19  04 01 41.131   +29 06 26.99  .34060 1.3243 171.4 22.4  69d  22
2021 11 28 20  04 01 42.008   +29 05 50.97  .34075 1.3244 171.4 22.4  70d  22
2021 11 28 21  04 01 42.886   +29 05 14.95  .34089 1.3245 171.4 22.4  70d  22
2021 11 28 22  04 01 43.763   +29 04 38.94  .34103 1.3247 171.4 22.4  70d  22
2021 11 28 23  04 01 44.641   +29 04 02.93  .34118 1.3248 171.4 22.4  70d  22
2021 11 29 00  04 01 45.518   +29 03 26.93  .34132 1.3249 171.4 22.4  70d  22
2021 11 29 01  04 01 46.396   +29 02 50.93  .34146 1.3251 171.4 22.4  70d  22
2021 11 29 02  04 01 47.273   +29 02 14.94  .34161 1.3252 171.4 22.4  70d  22
2021 11 29 03  04 01 48.151   +29 01 38.95  .34175 1.3253 171.4 22.4  70d  22
2021 11 29 04  04 01 49.028   +29 01 02.96  .34190 1.3255 171.4 22.4  70d  22